EW4363 Weather Reports


Display with metric or nautical units.
time (UTC)temp
F
wind
direction
speed
MPH
gust
MPH
rain 1hr
in
rain 24hr
in
rain mn
in
humidity
%
barometer
mb
20260507153803 68 319 4.0 9.0 0.00 0.00 0.00 57 1010.6
20260507152804 69 318 3.0 9.0 0.00 0.00 0.00 56 1010.5
20260507151803 69 310 3.0 7.0 0.00 0.00 0.00 55 1010.5
20260507151303 69 322 3.0 9.0 0.00 0.00 0.00 55 1010.5
20260507150803 69 322 3.0 6.0 0.00 0.00 0.00 55 1010.5
20260507150303 69 319 2.0 6.0 0.00 0.00 0.00 56 1010.5
20260507145803 68 322 2.0 9.0 0.00 0.00 0.00 57 1010.5
20260507143803 71 320 3.0 9.0 0.00 0.00 0.00 54 1010.8
20260507143303 71 321 3.0 8.0 0.00 0.00 0.00 54 1010.8
20260507142803 70 316 2.0 8.0 0.00 0.00 0.00 55 1010.8
20260507142306 70 312 5.0 7.0 0.00 0.00 0.00 55 1010.9
20260507140803 71 322 2.0 8.0 0.00 0.00 0.00 54 1011.1
20260507135804 71 323 3.0 12.0 0.00 0.00 0.00 54 1011.2
20260507134803 71 318 4.0 9.0 0.00 0.00 0.00 53 1011.3
20260507134303 71 317 3.0 9.0 0.00 0.00 0.00 54 1011.1
20260507133803 71 315 3.0 7.0 0.00 0.00 0.00 53 1011.3
20260507133303 71 318 6.0 13.0 0.00 0.00 0.00 52 1011.4
20260507132803 71 317 3.0 10.0 0.00 0.00 0.00 54 1011.4
20260507132307 71 316 3.0 9.0 0.00 0.00 0.00 55 1011.4
20260507131303 71 304 2.0 8.0 0.00 0.00 0.00 54 1011.4
20260507130803 71 305 4.0 9.0 0.00 0.00 0.00 54 1011.5
20260507130303 71 308 4.0 9.0 0.00 0.00 0.00 54 1011.5
20260507125803 71 315 3.0 8.0 0.00 0.00 0.00 54 1011.5
20260507125306 71 320 4.0 12.0 0.00 0.00 0.00 54 1011.6
20260507124803 72 304 4.0 9.0 0.00 0.00 0.00 53 1011.8
20260507124304 72 312 3.0 13.0 0.00 0.00 0.00 54 1011.7
20260507123803 72 324 3.0 9.0 0.00 0.00 0.00 53 1011.7
20260507122803 72 322 4.0 8.0 0.00 0.00 0.00 53 1011.7
20260507122306 72 309 4.0 9.0 0.00 0.00 0.00 53 1011.8
20260507121803 72 313 5.0 10.0 0.00 0.00 0.00 52 1011.8
20260507121303 73 321 4.0 10.0 0.00 0.00 0.00 50 1011.8
20260507120803 73 318 4.0 8.0 0.00 0.00 0.00 50 1011.8
20260507120303 73 311 3.0 8.0 0.00 0.00 0.00 49 1011.8
20260507115803 73 315 3.0 12.0 0.00 0.00 0.00 50 1011.8
20260507115306 73 321 4.0 8.0 0.00 0.00 0.00 49 1011.8
20260507114804 73 313 3.0 5.0 0.00 0.00 0.00 50 1011.8
20260507114303 73 311 3.0 8.0 0.00 0.00 0.00 49 1011.9
20260507113804 72 317 2.0 5.0 0.00 0.00 0.00 52 1011.9
20260507112306 71 321 3.0 9.0 0.00 0.00 0.00 53 1012.1
20260507111803 71 321 2.0 3.0 0.00 0.00 0.00 54 1012.3
20260507111304 70 310 2.0 7.0 0.00 0.00 0.00 54 1012.3
20260507110803 70 323 4.0 7.0 0.00 0.00 0.00 53 1012.4
20260507110303 71 317 3.0 7.0 0.00 0.00 0.00 54 1012.5
20260507105803 71 316 2.0 7.0 0.00 0.00 0.00 55 1012.5
20260507105306 71 310 3.0 13.0 0.00 0.00 0.00 53 1012.5
20260507104303 71 324 2.0 6.0 0.00 0.00 0.00 53 1012.6
20260507103803 71 322 2.0 6.0 0.00 0.00 0.00 54 1012.7
20260507103303 71 322 3.0 6.0 0.00 0.00 0.00 54 1012.7
20260507102804 70 333 2.0 5.0 0.00 0.00 0.00 54 1012.8
20260507102306 70 322 3.0 5.0 0.00 0.00 0.00 56 1012.9
20260507101304 68 321 2.0 7.0 0.00 0.00 0.00 59 1012.9
20260507100803 67 323 2.0 3.0 0.00 0.00 0.00 62 1013.0
20260507100304 67 319 2.0 7.0 0.00 0.00 0.00 63 1013.1
20260507095305 68 318 2.0 3.0 0.00 0.00 0.00 62 1013.0
20260507094803 68 288 1.0 3.0 0.00 0.00 0.00 61 1013.0
20260507094303 68 325 1.0 3.0 0.00 0.00 0.00 61 1013.1
20260507093804 67 319 0.0 3.0 0.00 0.00 0.00 61 1013.1
20260507093303 67 317 0.0 2.0 0.00 0.00 0.00 62 1013.2
20260507092804 68 332 1.0 3.0 0.00 0.00 0.00 61 1013.2
20260507092306 68 326 2.0 3.0 0.00 0.00 0.00 59 1013.2
20260507091804 69 330 0.0 1.0 0.00 0.00 0.00 60 1013.2
20260507090803 67 309 1.0 5.0 0.00 0.00 0.00 63 1013.1
20260507090303 66 313 1.0 3.0 0.00 0.00 0.00 64 1013.0
20260507085803 66 274 0.0 2.0 0.00 0.00 0.00 65 1013.0
20260507085306 66 320 1.0 2.0 0.00 0.00 0.00 65 1013.0
20260507084803 65 312 0.0 2.0 0.00 0.00 0.00 66 1013.0
20260507084304 65 310 0.0 2.0 0.00 0.00 0.00 67 1013.1
20260507083803 65 327 0.0 3.0 0.00 0.00 0.00 66 1013.2
20260507082804 66 324 1.0 3.0 0.00 0.00 0.00 65 1013.1
20260507082306 66 260 0.0 2.0 0.00 0.00 0.00 65 1013.1
20260507081803 65 326 0.0 2.0 0.00 0.00 0.00 65 1013.2
20260507081303 65 324 0.0 1.0 0.00 0.00 0.00 66 1013.2
20260507080804 64 324 0.0 1.0 0.00 0.00 0.00 65 1013.2
20260507080303 64 324 0.0 1.0 0.00 0.00 0.00 65 1013.3
20260507075804 63 325 1.0 2.0 0.00 0.00 0.00 65 1013.4
20260507075306 63 276 0.0 1.0 0.00 0.00 0.00 66 1013.5
20260507074804 62 276 0.0 0.0 0.00 0.00 0.00 67 1013.6
20260507074303 61 276 0.0 1.0 0.00 0.00 0.00 70 1013.6
20260507073804 60 276 0.0 1.0 0.00 0.00 0.00 71 1013.7
20260507073304 59 276 0.0 0.0 0.00 0.00 0.00 73 1013.6
20260507072804 58 276 0.0 0.0 0.00 0.00 0.00 74 1013.6
20260507072306 58 276 0.0 0.0 0.00 0.00 0.00 75 1013.6
20260507071803 57 276 0.0 1.0 0.00 0.00 0.00 76 1013.6
20260507071303 57 276 0.0 2.0 0.00 0.00 0.00 77 1013.6
20260507070804 56 272 0.0 0.0 0.00 0.00 0.00 77 1013.7
20260507070304 56 272 0.0 0.0 0.00 0.00 0.00 79 1013.6
20260507065803 56 274 0.0 0.0 0.00 0.00 0.00 79 1013.5
20260507065306 55 331 0.0 0.0 0.00 0.00 0.00 79 1013.5
20260507064804 55 324 0.0 0.0 0.00 0.00 0.00 79 1013.5
20260507064303 55 324 0.0 0.0 0.00 0.00 0.00 79 1013.4
20260507063804 55 324 0.0 0.0 0.00 0.00 0.00 80 1013.3
20260507062804 54 324 0.0 2.0 0.00 0.00 0.00 83 1013.3
20260507062306 54 323 1.0 2.0 0.00 0.00 0.00 83 1013.2
20260507061803 53 328 0.0 2.0 0.00 0.00 0.00 83 1013.1
20260507060803 53 324 0.0 1.0 0.00 0.00 0.00 86 1013.1
20260507060303 52 324 1.0 2.0 0.00 0.00 0.00 87 1013.0
20260507055803 51 283 0.0 1.0 0.00 0.00 0.00 88 1013.0
20260507054804 50 283 0.0 0.0 0.00 0.00 0.00 89 1013.0
20260507054304 50 283 0.0 0.0 0.00 0.00 0.00 88 1012.9
20260507053803 50 283 0.0 0.0 0.00 0.00 0.00 88 1012.9
20260507053304 50 283 0.0 0.0 0.00 0.00 0.00 88 1012.8
20260507052803 51 283 0.0 0.0 0.00 0.00 0.00 88 1012.8
20260507052306 51 283 0.0 0.0 0.00 0.00 0.00 88 1012.8
20260507051304 50 283 0.0 0.0 0.00 0.00 0.00 89 1012.6
20260507050304 50 283 0.0 0.0 0.00 0.00 0.00 89 1012.6
20260507045803 50 283 0.0 0.0 0.00 0.00 0.00 90 1012.6
20260507045306 50 283 0.0 0.0 0.00 0.00 0.00 89 1012.6
20260507044804 50 283 0.0 0.0 0.00 0.00 0.00 88 1012.6
20260507044304 50 257 0.0 0.0 0.00 0.00 0.00 88 1012.6
20260507043803 51 257 0.0 1.0 0.00 0.00 0.00 87 1012.6
20260507043304 51 257 0.0 1.0 0.00 0.00 0.00 88 1012.6
20260507042804 51 261 0.0 1.0 0.00 0.00 0.00 88 1012.5
20260507042306 51 293 0.0 1.0 0.00 0.00 0.00 89 1012.5
20260507041804 50 293 0.0 1.0 0.00 0.00 0.00 89 1012.5
20260507041304 50 293 0.0 0.0 0.00 0.00 0.00 88 1012.5
20260507040303 51 293 0.0 1.0 0.00 0.00 0.00 87 1012.6
20260507035804 51 293 0.0 1.0 0.00 0.00 0.00 87 1012.6
20260507035306 51 269 0.0 3.0 0.00 0.00 0.00 87 1012.5
20260507034803 51 260 1.0 3.0 0.00 0.00 0.00 88 1012.5
20260507034304 51 268 0.0 3.0 0.00 0.00 0.00 88 1012.5
20260507033805 51 279 0.0 0.0 0.00 0.00 0.00 89 1012.6
20260507033304 51 316 0.0 1.0 0.00 0.00 0.00 90 1012.6
20260507032804 51 326 0.0 1.0 0.00 0.00 0.00 90 1012.6
20260507031804 50 326 0.0 0.0 0.00 0.00 0.00 90 1012.7
20260507031304 50 326 0.0 0.0 0.00 0.00 0.00 90 1012.7
20260507030804 50 326 0.0 0.0 0.00 0.00 0.00 89 1012.7
20260507025804 50 325 0.0 2.0 0.00 0.00 0.00 88 1012.7
20260507025306 51 325 0.0 1.0 0.00 0.00 0.00 89 1012.6
20260507024303 51 325 0.0 0.0 0.00 0.01 0.00 90 1012.5
20260507023804 50 325 0.0 0.0 0.00 0.01 0.00 90 1012.5
20260507023303 50 325 0.0 0.0 0.00 0.01 0.00 89 1012.5
20260507022804 50 325 0.0 0.0 0.00 0.01 0.00 88 1012.4
20260507022306 51 325 0.0 1.0 0.00 0.01 0.00 88 1012.4
20260507021804 51 325 0.0 1.0 0.00 0.01 0.00 88 1012.5
20260507021304 51 324 1.0 2.0 0.00 0.01 0.00 88 1012.4
20260507020804 52 281 0.0 0.0 0.00 0.01 0.00 88 1012.4
20260507020304 52 281 0.0 1.0 0.00 0.01 0.00 88 1012.4
20260507015804 52 281 0.0 1.0 0.00 0.01 0.00 88 1012.5
20260507014804 51 281 0.0 0.0 0.00 0.01 0.00 88 1012.6
20260507014303 51 281 0.0 1.0 0.00 0.01 0.00 88 1012.7
20260507013804 51 281 0.0 1.0 0.00 0.01 0.00 88 1012.7
20260507013304 52 281 0.0 0.0 0.00 0.01 0.00 87 1012.7
20260507012804 52 281 0.0 1.0 0.00 0.01 0.00 86 1012.7
20260507012306 52 281 0.0 0.0 0.00 0.01 0.00 86 1012.7
20260507011804 52 281 0.0 1.0 0.00 0.01 0.00 87 1012.5
20260507011305 52 0 0.0 0.0 0.00 0.01 0.00 86 1012.5
20260507010804 52 281 0.0 0.0 0.00 0.01 0.00 86 1012.6
20260507010303 52 281 0.0 0.0 0.00 0.01 0.00 86 1012.7
20260507005804 52 281 0.0 0.0 0.00 0.01 0.00 87 1012.7
20260507005306 52 281 0.0 0.0 0.00 0.01 0.00 86 1012.7
20260507004804 52 281 0.0 0.0 0.00 0.01 0.00 86 1012.8
20260507004303 52 281 0.0 0.0 0.00 0.01 0.00 85 1012.9
20260507003804 52 281 0.0 0.0 0.00 0.01 0.00 85 1012.9
20260507003303 53 281 0.0 1.0 0.00 0.01 0.00 85 1012.9
20260507002306 53 281 0.0 1.0 0.00 0.01 0.00 86 1012.9
20260507001804 53 281 0.0 0.0 0.00 0.01 0.00 86 1012.9
20260507000306 53 327 0.0 0.0 0.00 0.01 0.00 85 1013.0
20260506235804 53 327 0.0 0.0 0.00 0.01 0.00 85 1013.0
20260506235306 53 327 0.0 0.0 0.00 0.01 0.00 85 1012.9
20260506234804 53 327 0.0 0.0 0.00 0.01 0.00 85 1012.9
20260506234304 53 327 1.0 2.0 0.00 0.01 0.00 84 1013.0
20260506233804 54 321 0.0 2.0 0.00 0.01 0.00 84 1012.9
20260506233304 54 324 0.0 0.0 0.00 0.01 0.00 84 1012.9
20260506232804 54 324 0.0 0.0 0.00 0.01 0.00 84 1012.9
20260506231804 54 324 0.0 0.0 0.00 0.01 0.00 83 1013.0
20260506231304 54 324 0.0 0.0 0.00 0.01 0.00 83 1012.9
20260506230804 54 324 0.0 0.0 0.00 0.01 0.00 83 1012.9
20260506225805 55 324 0.0 0.0 0.00 0.01 0.00 82 1012.9
20260506225306 55 324 0.0 0.0 0.00 0.01 0.00 82 1012.9
20260506224804 55 324 0.0 0.0 0.00 0.01 0.00 81 1012.9
20260506224304 55 324 0.0 0.0 0.00 0.01 0.00 81 1012.8
20260506223804 56 324 0.0 0.0 0.00 0.01 0.00 80 1012.8
20260506223304 56 324 0.0 0.0 0.00 0.01 0.00 79 1012.8
20260506222804 56 324 0.0 0.0 0.00 0.01 0.00 79 1012.8
20260506222306 56 324 0.0 0.0 0.00 0.01 0.00 79 1012.8
20260506221804 56 324 0.0 0.0 0.00 0.01 0.00 79 1012.8
20260506221304 56 324 0.0 0.0 0.00 0.01 0.00 78 1012.7
20260506220811 57 324 0.0 0.0 0.00 0.01 0.00 78 1012.7
20260506215804 57 324 0.0 0.0 0.00 0.01 0.01 76 1012.7
20260506215306 57 324 0.0 0.0 0.00 0.01 0.01 76 1012.7
20260506214804 57 324 0.0 0.0 0.00 0.01 0.01 75 1012.7
20260506214304 58 324 0.0 0.0 0.00 0.01 0.01 75 1012.7
20260506213804 58 324 0.0 0.0 0.00 0.01 0.01 75 1012.7
20260506213304 58 324 0.0 0.0 0.00 0.01 0.01 74 1012.6
20260506212804 58 324 0.0 0.0 0.00 0.01 0.01 74 1012.6
20260506212306 58 324 0.0 0.0 0.00 0.01 0.01 73 1012.7
20260506211305 59 324 0.0 0.0 0.00 0.01 0.01 73 1012.6
20260506203804 60 323 0.0 0.0 0.00 0.01 0.01 69 1012.2
20260506203304 60 323 0.0 0.0 0.00 0.01 0.01 68 1012.2
20260506201804 61 282 0.0 1.0 0.00 0.01 0.01 67 1011.9
20260506201304 61 282 1.0 3.0 0.00 0.01 0.01 67 1011.9
20260506200804 61 288 0.0 1.0 0.00 0.01 0.01 67 1011.9
20260506200304 61 288 0.0 1.0 0.00 0.01 0.01 67 1011.8
20260506195804 61 289 0.0 1.0 0.00 0.01 0.01 66 1011.7
20260506194804 61 289 0.0 1.0 0.00 0.01 0.01 65 1011.5
20260506194304 62 290 0.0 0.0 0.00 0.01 0.01 64 1011.5
20260506193304 62 288 0.0 1.0 0.00 0.01 0.01 62 1011.2
20260506192804 62 288 0.0 1.0 0.00 0.01 0.01 61 1011.2
20260506192306 62 312 0.0 1.0 0.00 0.01 0.01 60 1011.1
20260506191804 62 326 0.0 3.0 0.00 0.01 0.01 60 1011.0
20260506191304 63 318 1.0 3.0 0.00 0.01 0.01 59 1010.9
20260506190304 63 326 0.0 3.0 0.00 0.01 0.01 59 1010.8
20260506185306 63 325 1.0 3.0 0.00 0.01 0.01 58 1010.6
20260506184804 64 319 1.0 3.0 0.00 0.01 0.01 57 1010.5
20260506184304 64 323 1.0 5.0 0.00 0.01 0.01 57 1010.5
20260506183804 64 326 1.0 3.0 0.00 0.01 0.01 56 1010.3
20260506182306 65 321 3.0 5.0 0.00 0.01 0.01 55 1010.1
20260506181804 66 312 1.0 3.0 0.00 0.01 0.01 55 1010.1
20260506180804 66 327 2.0 5.0 0.00 0.01 0.01 53 1010.0
20260506180304 67 315 3.0 6.0 0.00 0.01 0.01 52 1009.9
20260506175804 68 326 2.0 5.0 0.00 0.01 0.01 51 1009.8
20260506175306 68 322 3.0 5.0 0.00 0.01 0.01 50 1009.8
20260506174305 69 323 2.0 5.0 0.00 0.01 0.01 50 1009.7
20260506173804 69 325 2.0 5.0 0.00 0.01 0.01 50 1009.6
20260506173304 70 323 2.0 6.0 0.00 0.01 0.01 49 1009.6
20260506172804 70 326 2.0 3.0 0.00 0.01 0.01 48 1009.5
20260506171805 69 323 2.0 6.0 0.00 0.01 0.01 49 1009.3
20260506170804 70 298 2.0 5.0 0.00 0.01 0.01 49 1009.4
20260506170305 69 286 1.0 3.0 0.00 0.01 0.01 50 1009.4
20260506165305 68 314 1.0 7.0 0.00 0.02 0.01 51 1009.2
20260506164804 68 321 3.0 7.0 0.00 0.02 0.01 52 1009.2
20260506164305 68 319 3.0 7.0 0.00 0.03 0.01 52 1009.2
20260506163305 69 317 3.0 9.0 0.00 0.04 0.01 51 1009.2
20260506162804 70 318 4.0 8.0 0.00 0.05 0.01 49 1009.1
20260506162307 70 324 2.0 7.0 0.00 0.05 0.01 49 1009.1
20260506161804 70 315 3.0 7.0 0.00 0.06 0.01 49 1009.0
20260506161304 70 321 5.0 9.0 0.00 0.06 0.01 48 1009.0
20260506160804 71 318 3.0 6.0 0.00 0.06 0.01 47 1008.9
20260506160305 72 314 2.0 5.0 0.00 0.07 0.01 45 1008.9
20260506155306 73 321 3.0 7.0 0.00 0.09 0.01 44 1008.8
20260506154304 74 319 2.0 5.0 0.00 0.13 0.01 43 1008.8